Flag for U.S.A. Weather past 2 weeks in Glennallen, Alaska, U.S.A.

Now
36 °F

Sunny.


Feels Like: 28 °F
Forecast: 32 / 48 °F
Wind: 13 mph from South

Location: Gulkana Airport

Current Time: Apr 17, 2015 at 8:24:58 PM

Latest Report: Apr 17, 2015 at 7:53 PM


Visibility: 10 mi

Pressure: 30.05 "Hg

Humidity: 46%

Dew point: 17 °F

Location of GlennallenLocation

Historic Weather in Glennallen — Graph

°F

Glennallen temperature yesterday

Maximum temperature yesterday: 44 °F (at 2:53 PM)
Minimum temperature yesterday: 32 °F (at 4:53 AM)
Average temperature yesterday: 38 °F

Past Weeks' High & Low Weather Summary

 TemperatureHumidityPressure
High45 °F (Apr 7, 1:53 PM)85% (Apr 12, 1:53 AM)30.19 "Hg (Apr 12, 1:53 AM)
Low11 °F (Apr 14, 6:53 AM)25% (Apr 14, 7:53 PM)29.04 "Hg (Apr 10, 3:53 AM)
Average33 °F56%29.61 "Hg
* Reported Apr 2 5:53 PM — Apr 17 5:53 PM, Glennallen, Weather by CustomWeather, © 2015

Note: Actual official high and low records may vary slightly from our data, if they occured in-between our weather recording intervals... More about our weather records

Advertising

Glennallen weather history for previous 24 hours

 ConditionsComfort  
Time TempWeatherWind HumidityBarometerVisibility
5:53 PM
Fri, Apr 17
39 °FSunny.18 mph43%30.05 "Hg10 mi
4:53 PM40 °FSunny.26 mph38%30.05 "Hg10 mi
3:53 PM40 °FScattered clouds.26 mph38%30.05 "Hg10 mi
2:53 PM39 °FPassing clouds.21 mph39%30.05 "Hg10 mi
1:53 PM40 °FPassing clouds.18 mph40%30.04 "Hg10 mi
12:53 PM40 °FPassing clouds.23 mph40%30.03 "Hg10 mi
11:53 AM40 °FSunny.24 mph38%30.00 "Hg10 mi
10:53 AM38 °FSunny.20 mph45%29.97 "Hg10 mi
9:53 AM36 °FSunny.16 mph57%29.97 "Hg10 mi
8:53 AM34 °FSunny.16 mph64%29.96 "Hg10 mi
7:53 AM30 °FSunny.12 mph72%29.95 "Hg10 mi
6:53 AM31 °FClear.10 mph69%29.92 "Hg10 mi
5:53 AM30 °FClear.9 mph72%29.90 "Hg10 mi
4:53 AM31 °FClear.10 mph69%29.89 "Hg10 mi
3:53 AM31 °FPassing clouds.10 mph69%29.89 "Hg10 mi
2:53 AM32 °FPassing clouds.13 mph66%29.88 "Hg10 mi
1:53 AM31 °FClear.9 mph69%29.88 "Hg10 mi
12:53 AM32 °FClear.6 mph66%29.88 "Hg10 mi
11:53 PM
Thu, Apr 16
34 °FClear.10 mph64%29.87 "Hg10 mi
10:53 PM35 °FClear.15 mph64%29.86 "Hg10 mi
9:53 PM36 °FSunny.15 mph62%29.85 "Hg10 mi
8:53 PM38 °FPassing clouds.15 mph60%29.83 "Hg10 mi
Weather by CustomWeather, © 2015

See weather overviewHow to use our weather pages